Вернуться в каталог

COSMOS 839 DEB

АктивенUNKNOWN
NORAD 13947·DEBRIS·🇷🇺 Russia

Запущен Jul 8, 1976 с Plesetsk Cosmodrome

Loading…

Ближайшие Пролёты (ближайшие 24 часа)

TLE

СвежийSource: Space-Track

Эпоха: Sep 14, 2026, 05:00 UTC

1 13947U 76067BF  26257.20887215  .00000012  00000-0  29299-3 0  9992
2 13947  65.7191 172.5441 0666656  23.8700 121.7156 12.24398520555198

Отслеживайте COSMOS 839 DEB в реальном времени с AllMySat

Download on the App Store